Date String (YYYY-MM-DD hh:mm:ss) UTC,Instrument flags,Ambient pressure (hPa),Sample flow (lpm),Bypass flow (lpm),Sample temperature (°C),Ambient temperature (°C),ASC tube jacket temperature (°C),LED temperature (°C),Box temperature (°C),Sample RH (%),Span deviation,Mass concentration (μg/m³),Mass concentration (μg/m³),Mass concentration (μg/m³)
DateTimeUTC,F1_M11,P_M11,Q1_M11,Q2_M11,T1_M11,T2_M11,T3_M11,T4_M11,T5_M11,U1_M11,ZSPAN_M11,X0_M11,X2_M11,X1_M11
2023-03-08 09:00:00,,0827.2,4.99,0.00,22.1,20.2,00.0,30.9,23.8,14.9,0000.4,0009.88,0006.38,0006.03
2023-03-08 09:01:00,,0827.2,5.00,0.00,22.2,20.9,00.0,30.9,23.9,14.9,0000.2,0009.83,0006.36,0006.01
2023-03-08 09:02:00,,0827.2,4.99,0.00,22.2,22.1,00.0,30.9,24.2,14.9,0000.3,0009.61,0006.33,0006.00
2023-03-08 09:03:00,,0827.2,4.99,0.00,22.4,23.0,00.0,31.0,24.4,14.9,0000.5,0009.53,0006.34,0006.01
2023-03-08 09:04:00,,0827.4,4.98,0.00,22.4,22.7,00.0,31.0,24.4,15.0,0000.8,0009.68,0006.45,0006.10
2023-03-08 09:05:00,,0827.3,5.00,0.00,22.4,22.3,00.0,31.0,24.3,15.0,0000.7,0009.52,0006.54,0006.19
2023-03-08 09:06:00,,0827.2,4.96,0.00,22.4,21.9,00.0,31.0,24.3,15.1,0000.3,0010.14,0006.70,0006.34
2023-03-08 09:07:00,,0827.3,5.01,0.00,22.4,21.6,00.0,31.1,24.2,15.2,0000.1,0011.10,0006.83,0006.46
2023-03-08 09:08:00,,0827.3,5.01,0.00,22.4,21.4,00.0,31.1,24.2,15.2,-000.1,0011.45,0006.93,0006.55
2023-03-08 09:09:00,,0827.2,5.00,0.00,22.4,21.2,00.0,31.1,24.2,15.3,-000.3,0011.56,0007.05,0006.66
2023-03-08 09:10:00,,0827.2,5.00,0.00,22.4,21.0,00.0,31.1,24.1,15.4,-001.3,0011.97,0007.24,0006.86
2023-03-08 09:11:00,,0827.2,5.00,0.00,22.4,20.9,00.0,31.1,24.1,15.5,-001.6,0012.43,0007.53,0007.14
2023-03-08 09:12:00,,0827.2,5.01,0.00,22.4,20.8,00.0,31.1,24.1,15.6,-001.5,0013.22,0007.97,0007.49
2023-03-08 09:13:00,,0827.2,5.01,0.00,22.4,20.8,00.0,31.1,24.1,15.7,-001.5,0014.01,0008.36,0007.85
2023-03-08 09:14:00,,0827.2,5.00,0.00,22.3,20.7,00.0,31.1,24.0,15.8,-001.5,0014.45,0008.74,0008.20
2023-03-08 09:15:00,,0827.2,5.00,0.00,22.3,20.6,00.0,31.1,24.0,15.9,-001.8,0014.81,0009.00,0008.47
2023-03-08 09:16:00,,0827.2,5.00,0.00,22.3,20.6,00.0,31.1,24.0,15.9,-001.9,0015.06,0009.28,0008.75
2023-03-08 09:17:00,,0827.2,5.00,0.00,22.3,20.5,00.0,31.1,24.0,16.0,-001.9,0014.49,0009.51,0008.99
2023-03-08 09:18:00,,0827.2,5.00,0.00,22.3,20.5,00.0,31.0,24.0,16.0,-001.9,0013.89,0009.79,0009.26
2023-03-08 09:19:00,,0827.1,5.00,0.00,22.2,20.5,00.0,31.0,24.0,16.1,-002.1,0014.09,0010.14,0009.59
2023-03-08 09:20:00,,0827.1,4.99,0.00,22.2,20.9,00.0,31.0,24.0,16.1,-002.0,0014.46,0010.45,0009.88
2023-03-08 09:21:00,,0827.2,4.99,0.00,22.3,22.0,00.0,31.0,24.2,16.0,-001.8,0014.57,0010.70,0010.10
2023-03-08 09:22:00,,0827.2,4.97,0.00,22.5,22.9,00.0,31.0,24.5,16.0,-001.7,0014.64,0010.77,0010.22
2023-03-08 09:23:00,,0827.2,5.01,0.00,22.5,22.8,00.0,31.1,24.5,15.9,-001.7,0014.73,0010.77,0010.28
2023-03-08 09:24:00,,0827.2,4.99,0.00,22.6,22.4,00.0,31.1,24.4,15.9,-001.4,0015.03,0010.81,0010.34
2023-03-08 09:25:00,,0827.1,5.03,0.00,22.5,22.0,00.0,31.1,24.4,15.9,-001.5,0015.09,0010.87,0010.40
2023-03-08 09:26:00,,0827.5,5.00,0.00,22.5,21.7,00.0,31.1,24.3,16.0,-001.7,0015.10,0010.97,0010.46
2023-03-08 09:27:00,,0827.4,5.00,0.00,22.5,21.4,00.0,31.2,24.2,16.0,-001.5,0015.11,0011.01,0010.51
2023-03-08 09:28:00,,0827.1,5.01,0.00,22.5,21.2,00.0,31.2,24.2,16.0,-001.3,0015.38,0011.02,0010.53
2023-03-08 09:29:00,,0826.9,5.00,0.00,22.5,21.0,00.0,31.2,24.1,16.1,-001.2,0015.30,0011.00,0010.54
2023-03-08 09:30:00,,0827.0,4.99,0.00,22.4,20.8,00.0,31.1,24.1,16.1,-001.1,0015.25,0010.99,0010.52
2023-03-08 09:31:00,,0827.0,5.00,0.00,22.4,20.7,00.0,31.1,24.1,16.1,-001.2,0015.54,0011.01,0010.51
2023-03-08 09:32:00,,0827.0,4.99,0.00,22.4,20.6,00.0,31.1,24.1,16.1,-001.4,0015.84,0011.01,0010.51
2023-03-08 09:33:00,,0827.0,5.01,0.00,22.4,20.6,00.0,31.1,24.0,16.1,-001.4,0015.58,0011.01,0010.49
2023-03-08 09:34:00,,0827.1,4.98,0.00,22.3,20.5,00.0,31.1,24.0,16.1,-001.4,0015.58,0011.03,0010.49
2023-03-08 09:35:00,,0827.1,4.99,0.00,22.3,20.4,00.0,31.1,24.0,16.1,-001.6,0015.12,0011.01,0010.45
2023-03-08 09:36:00,,0827.1,5.04,0.00,22.3,20.4,00.0,31.1,23.9,16.2,-001.5,0016.13,0010.97,0010.41
2023-03-08 09:37:00,,0827.0,5.01,0.00,22.3,20.3,00.0,31.1,23.9,16.2,-001.3,0016.32,0010.90,0010.35
2023-03-08 09:38:00,,0827.0,5.03,0.00,22.2,20.3,00.0,31.1,23.9,16.2,-001.1,0016.58,0010.89,0010.32
2023-03-08 09:39:00,,0827.0,5.01,0.00,22.2,20.5,00.0,31.0,23.9,16.3,-001.3,0016.38,0010.90,0010.31
2023-03-08 09:40:00,,0827.0,5.00,0.00,22.3,21.7,00.0,31.0,24.2,16.2,-001.5,0016.71,0010.92,0010.31
2023-03-08 09:41:00,,0827.0,4.98,0.00,22.4,22.8,00.0,31.0,24.4,16.1,-001.7,0016.78,0010.92,0010.32
2023-03-08 09:42:00,,0827.0,5.01,0.00,22.5,22.9,00.0,31.1,24.5,16.1,-001.7,0016.54,0010.90,0010.32
2023-03-08 09:43:00,,0827.0,4.99,0.00,22.5,22.5,00.0,31.1,24.4,16.0,-001.6,0016.37,0010.91,0010.34
2023-03-08 09:44:00,,0826.9,4.97,0.00,22.5,22.1,00.0,31.1,24.3,16.0,-001.6,0016.53,0010.98,0010.39
2023-03-08 09:45:00,,0826.9,4.99,0.00,22.5,21.7,00.0,31.1,24.3,16.0,-001.7,0016.19,0010.99,0010.42
2023-03-08 09:46:00,,0826.9,5.00,0.00,22.5,21.4,00.0,31.2,24.2,16.0,-001.7,0016.04,0011.04,0010.47
2023-03-08 09:47:00,,0826.9,5.00,0.00,22.5,21.2,00.0,31.2,24.2,16.1,-001.8,0014.95,0011.07,0010.52
2023-03-08 09:48:00,,0827.0,5.01,0.00,22.5,21.0,00.0,31.2,24.1,16.1,-001.9,0014.67,0011.11,0010.55
2023-03-08 09:49:00,,0827.1,4.99,0.00,22.4,20.9,00.0,31.2,24.1,16.1,-002.1,0014.49,0011.13,0010.58
2023-03-08 09:50:00,,0827.0,5.04,0.00,22.4,20.7,00.0,31.1,24.1,16.1,-002.1,0014.47,0011.15,0010.59
2023-03-08 09:51:00,,0826.9,5.03,0.00,22.4,20.7,00.0,31.1,24.0,16.1,-002.2,0014.15,0011.11,0010.57
2023-03-08 09:52:00,,0826.8,5.01,0.00,22.4,20.6,00.0,31.1,24.0,16.1,-002.1,0013.99,0011.06,0010.54
2023-03-08 09:53:00,,0826.8,5.01,0.00,22.4,20.6,00.0,31.1,24.0,16.1,-002.1,0013.85,0011.03,0010.54
2023-03-08 09:54:00,,0826.8,4.99,0.00,22.3,20.5,00.0,31.1,24.0,16.2,-002.1,0014.20,0011.01,0010.52
2023-03-08 09:55:00,,0826.8,4.99,0.00,22.3,20.5,00.0,31.1,24.0,16.2,-001.9,0015.11,0010.96,0010.49
2023-03-08 09:56:00,,0826.9,5.01,0.00,22.3,20.4,00.0,31.1,24.0,16.2,-001.8,0014.96,0010.89,0010.46
2023-03-08 09:57:00,,0826.9,5.00,0.00,22.3,20.4,00.0,31.1,23.9,16.2,-001.8,0014.98,0010.85,0010.43
2023-03-08 09:58:00,,0826.9,5.00,0.00,22.3,20.9,00.0,31.0,24.0,16.2,-001.9,0015.04,0010.82,0010.41
2023-03-08 09:59:00,,0827.0,5.00,0.00,22.4,22.0,00.0,31.0,24.3,16.2,-001.9,0015.00,0010.78,0010.38
